Location: Unspecified
(0.0000°N, 0.0000°E)
Time: 09:14:17
(UTC+00:00)

Explorer 11/Cluster Stage 4 - Pass Details

Date: 16 July 2020
Orbit: 467 x 1259 km, 28.8° (Epoch: 03 August)

Event Time Altitude Azimuth Distance (km) Brightness Sun altitude
Rises 14:09:39 0° 333° (NNW) 3,627 10.5 53.1°
Reaches altitude 10° 14:14:00 10° 0° (N) 2,863 9.9 52.3°
Maximum altitude 14:17:04 13° 26° (NNE) 2,750 9.6 51.7°
Drops below altitude 10° 14:20:19 10° 52° (NE) 3,072 9.6 51.0°
Sets 14:25:20 0° 77° (ENE) 4,144 10.0 50.0°
